Temperature
2 2 2 2 1 1 1 2 2 3 3 3 2 2 3 3 2 2 1 1 1 1 1 1 1 1 2 2 2 2 2 3 3 3 3 3 3 3 3 3 4 4 4 4
1 3 2 2 2 2 1 1 2 2 2 2 3 3 2 2 2 1 1 0 0 0 0 0 0 1 1 1 2 2 2 2 2 2 2 2 3 3 3 3 3 3 3 3
1 2 2 1 1 1 1 1 1 1 2 2 2 2 2 2 1 1 0 -0 -0 -0 -0 -0 0 1 1 1 1 1 1 1 2 2 2 2 2 2 2 2 2 3 3 3
0 1 0 2 2 2 1 1 1 1 1 2 2 2 2 1 1 0 -0 -0 -1 -1 -1 -0 -0 0 0 1 1 1 1 1 1 1 1 1 1 2 2 2 2 2 2 2
-0 0 1 2 1 0 -0 -0 0 0 1 1 1 1 1 1 0 -0 -0 -1 -1 -1 -1 -1 -0 0 0 0 0 0 0 0 0 0 0 1 1 1 1 1 1 2 2 2
-0 -0 1 2 0 0 -0 -1 0 0 0 0 0 -1 -1 0 -0 -0 -1 -1 -1 -1 -1 -1 -1 -0 -0 -0 -0 -0 -0 -1 -1 -0 -0 -0 0 0 0 0 1 1 1 1
-1 -1 0 0 -0 0 -0 0 0 0 0 -0 -1 -1 -0 -1 -1 -1 -1 -1 -1 -1 -1 -1 -1 -1 -1 -1 -1 -1 -1 -1 -1 -1 -1 -1 -1 -0 -0 -0 -0 -0 -0 -0
-2 -1 -1 -1 -1 -1 -1 0 -0 -0 -0 -1 -1 -1 -1 -1 -1 -2 -2 -2 -2 -1 -1 -1 -1 -1 -1 -1 -1 -1 -2 -1 -1 -1 -1 -1 -1 -1 -1 -1 -1 -1 -1 -1
-2 -1 -0 -0 -0 -0 -0 -0 -1 -1 -1 -1 -2 -2 -2 -2 -2 -2 -2 -2 -2 -2 -2 -2 -2 -2 -2 -2 -2 -2 -2 -2 -2 -2 -2 -2 -2 -2 -2 -1 -1 -1 -1 -1
-2 -2 -0 -0 -0 -1 -1 -1 -1 -1 -1 -2 -2 -2 -3 -3 -3 -3 -3 -3 -2 -2 -2 -2 -2 -2 -2 -2 -2 -2 -2 -2 -2 -2 -2 -2 -2 -2 -2 -2 -2 -2 -2 -2
-3 -2 -1 -0 -1 -1 -1 -1 -1 -2 -2 -2 -3 -3 -3 -3 -3 -3 -3 -3 -3 -3 -3 -3 -3 -3 -3 -2 -2 -2 -3 -3 -3 -3 -3 -3 -3 -3 -2 -2 -2 -2 -2 -2
-2 -1 -2 -1 -0 -1 -1 -2 -2 -2 -2 -3 -3 -3 -3 -3 -3 -3 -3 -3 -3 -3 -3 -3 -3 -3 -3 -3 -3 -3 -3 -3 -3 -3 -3 -3 -3 -3 -3 -3 -3 -3 -3 -3
-0 -0 -0 -1 -1 -1 -1 -2 -2 -2 -3 -3 -3 -3 -3 -3 -4 -4 -4 -4 -4 -4 -3 -3 -3 -3 -3 -3 -3 -3 -3 -3 -4 -4 -3 -3 -3 -3 -4 -4 -3 -3 -3 -3
-1 -1 -1 -1 -1 -2 -2 -2 -3 -3 -3 -3 -3 -3 -3 -4 -4 -4 -4 -4 -4 -4 -4 -4 -4 -4 -4 -4 -4 -4 -4 -4 -4 -4 -4 -4 -4 -4 -4 -4 -4 -4 -3 -3
-1 -2 -2 -2 -2 -2 -2 -3 -3 -3 -3 -3 -3 -3 -3 -4 -4 -4 -4 -4 -4 -4 -4 -4 -4 -4 -4 -4 -4 -4 -4 -4 -4 -4 -4 -4 -4 -4 -4 -4 -4 -4 -4 -4
-2 -2 -2 -2 -3 -3 -3 -3 -3 -3 -3 -4 -4 -4 -4 -4 -4 -4 -4 -4 -4 -4 -4 -5 -5 -5 -5 -4 -4 -4 -4 -4 -4 -5 -5 -5 -5 -5 -5 -4 -4 -4 -4 -4
-2 -3 -3 -3 -3 -3 -3 -3 -3 -3 -4 -4 -4 -4 -4 -4 -4 -4 -4 -5 -5 -5 -5 -5 -5 -5 -5 -5 -5 -5 -5 -5 -5 -5 -5 -5 -5 -5 -5 -5 -5 -5 -5 -4
-2 -3 -3 -3 -3 -3 -3 -4 -4 -4 -4 -4 -4 -4 -4 -4 -4 -4 -5 -5 -5 -5 -5 -5 -5 -5 -5 -5 -5 -5 -5 -5 -5 -5 -5 -5 -5 -5 -5 -5 -5 -5 -5 -5
-3 -3 -3 -3 -3 -4 -4 -4 -4 -4 -4 -4 -5 -5 -5 -5 -5 -5 -5 -5 -5 -5 -5 -5 -5 -5 -5 -5 -5 -5 -5 -5 -5 -5 -6 -6 -6 -6 -6 -6 -6 -5 -5 -5
-3 -3 -3 -3 -4 -4 -4 -4 -4 -4 -4 -5 -5 -5 -5 -5 -5 -5 -5 -5 -6 -6 -6 -6 -6 -6 -6 -6 -6 -6 -6 -6 -6 -6 -6 -6 -6 -6 -6 -6 -6 -6 -6 -6
-3 -4 -4 -4 -4 -4 -4 -4 -5 -5 -5 -5 -5 -5 -5 -5 -6 -6 -6 -6 -6 -6 -6 -6 -6 -6 -6 -6 -6 -6 -6 -6 -6 -6 -6 -6 -6 -6 -6 -6 -6 -6 -6 -6
-4 -4 -4 -4 -4 -4 -5 -5 -5 -5 -5 -5 -6 -6 -6 -6 -6 -6 -6 -6 -6 -7 -7 -7 -7 -7 -7 -7 -6 -6 -6 -6 -6 -6 -6 -6 -6 -6 -6 -6 -6 -6 -6 -6
-4 -4 -4 -5 -5 -5 -5 -5 -5 -5 -6 -6 -6 -6 -6 -6 -6 -6 -6 -7 -7 -7 -7 -7 -7 -7 -7 -7 -7 -7 -7 -7 -7 -7 -7 -7 -7 -6 -6 -6 -6 -6 -6 -6
-4 -4 -4 -5 -5 -5 -5 -5 -6 -6 -6 -6 -6 -6 -6 -6 -7 -7 -7 -7 -7 -7 -7 -7 -7 -7 -7 -7 -7 -7 -7 -7 -7 -7 -7 -7 -7 -7 -7 -7 -6 -6 -6 -6
-4 -5 -5 -5 -5 -5 -5 -6 -6 -6 -6 -6 -7 -7 -7 -7 -7 -7 -7 -7 -7 -7 -7 -7 -7 -7 -7 -7 -7 -7 -7 -7 -7 -7 -7 -7 -7 -7 -7 -7 -7 -6 -6 -6
-5 -5 -5 -5 -5 -6 -6 -6 -6 -6 -7 -7 -7 -7 -7 -7 -7 -7 -7 -7 -8 -8 -8 -8 -8 -8 -8 -8 -8 -7 -7 -7 -7 -7 -7 -7 -7 -7 -7 -7 -6 -6 -6 -6
-5 -5 -6 -6 -6 -6 -6 -6 -7 -7 -7 -7 -7 -7 -7 -7 -7 -7 -8 -8 -8 -8 -8 -8 -8 -8 -8 -8 -8 -8 -8 -8 -7 -7 -7 -7 -7 -7 -7 -7 -6 -6 -6 -6
Wind_Speed
7 8 6 6 7 5 6 6 5 6 6 6 5 4 4 3 4 4 4 4 4 4 3 3 3 3 3 2 2 1 1 1 1 1 1 1 2 2 2 2 2 2 2 1
5 6 5 7 8 7 8 7 8 9 9 5 4 4 3 3 3 4 4 4 4 4 3 3 4 3 3 2 2 2 2 2 1 1 1 2 2 2 2 2 2 2 2 1
3 3 4 6 6 7 5 5 5 8 8 5 4 3 3 3 3 4 4 4 4 4 3 3 3 3 2 2 2 2 2 2 2 1 2 2 2 3 2 2 2 2 2 2
3 3 4 4 0 2 4 6 7 7 6 5 5 4 3 3 3 3 3 4 4 3 3 2 2 3 2 2 2 2 2 2 2 2 2 2 2 2 2 2 2 2 2 1
2 3 6 3 1 1 2 5 5 6 6 5 4 4 3 3 3 3 3 3 3 2 2 2 2 2 2 1 2 2 2 2 2 2 2 2 2 2 2 1 2 1 1 1
3 3 5 3 1 1 1 4 3 3 5 4 4 3 4 4 4 3 3 2 2 2 1 1 1 2 2 1 2 2 2 2 2 2 2 2 2 2 1 1 1 1 1 1
5 5 6 2 1 2 2 4 3 3 4 3 3 4 4 4 4 3 3 3 2 2 1 1 2 2 2 2 2 1 2 2 2 2 2 2 1 2 2 1 2 2 2 1
4 5 7 2 3 3 4 2 3 4 3 3 4 4 3 3 3 3 3 3 3 2 1 1 2 2 1 1 1 2 2 2 2 2 1 1 2 1 1 1 2 1 1 1
6 7 3 4 3 3 2 3 3 4 4 3 4 4 4 4 3 3 3 3 3 2 1 2 2 1 1 1 1 1 2 1 1 1 1 1 1 1 1 1 1 1 1 1
5 7 6 5 4 3 3 3 3 3 3 2 3 4 4 4 3 3 3 2 2 2 1 1 2 1 0 1 1 1 1 1 1 1 1 1 1 1 1 1 1 1 1 0
6 6 5 5 5 4 3 2 3 3 2 2 3 4 3 3 3 3 3 2 1 1 1 1 1 1 1 0 1 1 1 1 1 1 1 1 1 1 0 0 1 2 1 1
7 5 4 4 3 2 2 3 3 3 3 2 2 3 3 3 3 2 2 2 1 1 1 1 1 1 1 0 1 1 1 0 0 1 1 1 1 2 3 1 2 1 1 0
5 3 3 3 2 2 3 3 3 2 2 2 2 2 2 3 2 2 2 2 1 1 1 1 1 1 1 1 1 1 1 0 0 0 0 0 0 1 1 2 3 3 2 2
4 3 4 4 4 2 2 2 1 2 2 2 2 2 2 2 2 2 2 2 1 1 1 1 0 1 1 0 1 1 0 0 0 0 0 0 0 0 0 0 0 1 2 2
5 4 5 3 2 1 1 1 1 2 1 2 1 1 2 2 3 3 2 1 1 1 1 0 1 1 1 0 1 0 1 1 1 1 1 0 0 0 0 0 0 0 1 1
3 3 3 3 4 3 3 3 3 3 2 2 2 2 2 2 2 2 2 1 1 1 1 1 1 1 1 0 0 0 1 1 1 1 1 0 0 0 0 0 0 1 1 0
4 4 4 4 5 4 3 3 3 3 2 2 2 2 1 1 2 2 2 1 1 2 2 2 1 1 0 0 0 1 1 1 1 0 1 1 1 1 1 1 1 1 1 1
4 4 4 4 4 3 3 3 2 2 2 2 2 1 2 2 2 2 2 1 1 1 1 1 0 0 0 0 0 0 1 1 0 1 1 1 1 1 1 1 1 1 1 1
3 3 3 2 2 3 3 3 3 2 2 2 2 2 2 2 2 2 1 1 1 2 2 1 1 1 0 0 0 0 1 1 0 0 1 1 1 1 1 1 1 1 1 1
1 2 2 2 1 2 2 2 2 2 2 2 2 1 2 2 2 1 1 2 2 2 1 1 0 0 0 1 1 0 0 1 1 1 1 1 1 1 1 1 1 1 1 1
1 1 2 2 2 1 2 2 2 2 2 2 2 3 2 2 1 1 1 2 2 1 0 0 0 0 0 0 0 0 0 0 1 1 1 1 1 1 1 1 1 1 1 1
2 2 2 2 2 2 2 2 2 2 2 2 2 2 2 2 1 1 2 2 1 1 0 0 0 0 0 0 0 0 0 0 0 1 1 1 1 1 1 1 1 1 1 1
2 2 2 2 2 2 1 1 2 2 3 3 3 3 3 2 2 1 1 1 0 0 1 0 0 0 1 1 1 0 0 0 0 0 0 1 1 1 1 1 1 1 1 1
2 2 2 2 2 2 2 2 1 2 2 2 2 2 2 1 1 1 0 0 0 1 1 0 1 1 1 1 1 1 1 0 0 0 0 0 0 0 1 1 1 1 1 1
2 2 2 3 3 3 3 2 1 1 1 1 1 1 1 1 1 1 1 1 0 1 1 0 1 2 1 1 1 1 1 0 0 0 0 0 0 0 0 1 1 1 1 1
3 3 3 3 3 2 2 2 2 2 2 1 1 1 1 1 1 1 1 1 1 1 1 1 1 2 1 1 1 1 1 1 1 1 0 0 0 0 0 1 1 1 1 1
2 2 2 2 2 2 2 3 2 2 2 2 2 1 1 1 1 1 1 1 1 1 1 1 1 1 1 1 1 1 1 1 1 1 1 1 0 0 0 0 1 1 1 1
Wind_Direction
269 276 274 262 259 241 231 239 248 281 284 293 314 322 334 344 346 351 356 1 357 357 356 2 4 5 10 20 32 35 55 57 45 35 45 59 84 82 90 87 78 94 103 107
280 251 255 268 264 246 241 249 258 277 283 288 304 326 334 339 336 331 335 340 342 345 354 357 355 356 10 26 31 45 54 43 35 45 52 57 77 80 86 84 81 83 88 98
279 310 310 272 245 228 232 234 234 250 265 303 309 311 317 320 316 311 320 329 330 333 341 345 347 353 9 24 35 50 52 40 32 41 60 59 72 76 78 85 95 98 90 97
285 326 257 240 156 195 226 248 244 259 285 303 299 303 315 312 311 320 323 319 318 325 337 345 351 359 20 35 55 53 50 44 33 38 48 52 71 77 66 72 90 94 96 96
259 268 271 250 226 169 227 276 256 258 282 301 321 325 331 354 354 329 322 319 320 319 328 346 359 21 36 56 59 49 44 38 28 38 43 43 54 66 66 76 79 81 96 100
239 250 257 254 113 85 75 279 288 273 286 300 327 302 290 335 342 337 344 346 343 341 5 25 47 51 49 64 67 40 25 33 32 35 42 36 37 58 60 80 86 84 73 77
232 242 264 256 152 120 187 260 318 314 297 307 289 271 303 335 341 348 351 349 358 3 52 67 75 64 50 63 56 29 34 43 44 42 43 34 34 56 64 71 82 79 71 56
205 225 250 157 139 190 229 304 323 321 320 313 301 309 326 330 335 347 349 351 0 13 33 50 72 78 58 53 35 35 47 51 50 42 35 35 63 65 69 90 98 87 83 62
203 219 234 176 205 229 276 294 310 319 325 316 310 313 318 319 324 334 338 342 355 2 23 43 49 65 59 19 51 51 63 59 48 37 44 51 91 105 104 109 121 121 100 75
252 257 252 234 240 257 265 273 299 316 319 315 306 308 313 314 319 328 333 337 348 359 20 16 21 18 357 348 71 79 74 71 60 50 47 37 81 90 101 140 143 133 136 139
247 267 277 250 235 249 271 295 305 310 312 298 295 299 303 308 310 315 321 325 334 342 338 330 351 345 318 346 84 84 84 91 69 62 77 43 46 42 72 155 169 170 184 186
236 234 221 256 241 228 247 269 281 294 307 311 290 286 297 301 305 306 310 316 324 330 317 309 329 322 329 21 101 107 81 73 73 77 69 77 71 38 32 33 28 35 20 309
238 268 261 271 279 246 241 259 270 270 267 282 293 292 295 298 300 305 307 306 296 293 298 303 327 332 337 26 92 114 149 212 55 51 60 106 104 91 31 28 34 38 39 27
239 253 265 261 264 254 242 249 260 265 268 267 275 289 294 299 305 305 299 286 280 284 291 276 319 320 320 46 109 136 181 239 226 207 181 174 177 203 204 174 25 7 25 45
234 227 239 255 256 245 223 214 246 270 276 285 278 279 284 289 290 290 289 287 290 290 287 294 306 308 321 43 114 181 218 202 177 162 162 180 191 222 218 203 153 92 56 52
225 230 236 245 250 248 238 229 235 249 254 262 275 276 277 280 288 299 298 267 244 270 279 273 282 298 320 35 133 249 235 214 182 147 147 162 195 204 187 168 164 161 166 144
203 227 228 241 248 249 238 232 231 236 243 246 252 267 287 297 302 303 307 291 254 269 270 257 266 299 340 200 210 228 195 178 193 155 170 183 206 202 187 184 191 210 216 214
214 225 225 233 238 240 239 232 229 233 238 241 245 252 254 250 259 279 303 322 328 316 299 276 275 339 297 167 180 214 171 150 158 191 190 197 208 195 180 191 203 221 226 239
222 226 228 229 224 215 223 229 229 229 226 214 216 233 245 247 252 274 299 287 260 277 292 297 348 33 16 298 331 211 165 158 163 203 212 214 224 185 188 202 208 202 202 225
220 206 199 213 215 203 219 229 222 232 230 205 204 218 244 256 253 256 264 261 255 254 261 252 70 33 299 269 324 40 165 180 187 205 208 195 198 210 210 210 212 204 203 231
227 217 206 208 218 220 216 215 210 223 229 203 201 217 234 255 257 237 235 268 287 269 261 272 65 17 282 285 334 30 67 187 190 209 216 213 208 216 211 207 210 208 213 224
216 212 208 200 205 236 242 217 209 213 215 211 211 211 217 237 249 258 246 241 254 279 29 138 188 261 346 60 81 91 93 91 229 212 207 205 205 212 213 206 205 214 218 214
218 213 203 201 209 225 252 234 215 207 210 211 208 209 214 223 221 218 263 263 206 42 50 104 30 53 52 61 82 99 93 85 48 230 199 187 195 199 206 214 209 202 195 192
216 211 204 198 180 180 221 246 228 214 208 212 212 203 198 205 247 244 205 175 93 48 62 25 41 46 50 60 72 69 75 75 59 58 143 182 198 195 202 199 189 175 168 165
210 205 198 191 195 208 210 195 183 192 191 194 201 202 202 198 193 167 106 112 87 48 47 25 44 38 46 70 74 70 66 98 131 136 146 146 185 197 210 188 181 172 172 175
211 212 211 211 208 200 185 179 188 191 180 179 184 173 155 131 127 121 112 117 109 56 47 37 41 43 53 63 67 58 54 16 1 22 66 100 158 213 216 180 173 168 175 176
203 202 196 203 210 194 186 182 184 187 182 175 168 150 138 126 116 110 105 95 81 65 59 52 51 53 57 61 60 54 47 37 35 43 44 46 40 354 317 185 157 156 155 159
Height
1499 1495 1494 1494 1495 1495 1496 1492 1491 1482 1479 1476 1475 1474 1473 1472 1470 1469 1467 1466 1464 1463 1461 1461 1460 1459 1458 1458 1459 1459 1459 1460 1461 1461 1462 1462 1463 1464 1466 1467 1468 1469 1471 1472
1499 1491 1491 1491 1489 1489 1490 1489 1486 1483 1479 1475 1474 1473 1472 1471 1470 1468 1467 1465 1464 1462 1461 1460 1459 1458 1457 1457 1457 1457 1458 1458 1459 1459 1460 1460 1461 1462 1464 1465 1466 1467 1469 1470
1499 1491 1491 1491 1485 1485 1485 1484 1484 1483 1478 1474 1473 1472 1471 1470 1469 1468 1466 1465 1463 1461 1460 1458 1457 1456 1456 1456 1456 1457 1457 1457 1457 1458 1458 1459 1460 1461 1462 1463 1464 1465 1467 1468
1502 1499 1499 1485 1480 1480 1481 1481 1479 1477 1475 1473 1472 1470 1469 1469 1468 1466 1465 1463 1461 1460 1458 1457 1456 1455 1455 1455 1455 1456 1456 1456 1456 1457 1457 1458 1458 1459 1460 1461 1463 1464 1465 1466
1503 1500 1489 1482 1480 1480 1482 1481 1476 1475 1473 1472 1470 1468 1468 1467 1466 1465 1464 1462 1460 1458 1457 1455 1454 1454 1454 1454 1454 1454 1455 1455 1455 1456 1456 1457 1457 1458 1459 1460 1461 1462 1463 1464
1502 1500 1492 1480 1480 1478 1482 1481 1474 1473 1472 1471 1470 1471 1468 1466 1465 1463 1462 1460 1458 1456 1455 1454 1454 1453 1453 1453 1453 1454 1454 1454 1454 1455 1456 1456 1457 1457 1459 1460 1460 1461 1462 1462
1502 1498 1487 1480 1478 1479 1484 1479 1473 1471 1471 1470 1469 1469 1467 1464 1463 1461 1460 1458 1456 1454 1453 1453 1453 1453 1452 1452 1452 1453 1453 1454 1454 1455 1455 1456 1456 1457 1458 1459 1459 1460 1460 1461
1498 1496 1489 1478 1478 1479 1477 1473 1471 1470 1469 1468 1467 1466 1464 1463 1461 1459 1458 1456 1454 1453 1452 1452 1452 1451 1451 1451 1452 1452 1453 1453 1453 1454 1454 1455 1455 1456 1457 1458 1458 1458 1459 1460
1487 1483 1475 1474 1473 1472 1472 1471 1470 1469 1468 1466 1465 1464 1462 1461 1459 1458 1456 1455 1453 1452 1451 1451 1451 1451 1450 1451 1451 1451 1451 1452 1452 1453 1454 1454 1455 1455 1456 1456 1457 1457 1457 1458
1480 1474 1471 1471 1470 1470 1469 1469 1468 1467 1466 1465 1463 1462 1461 1459 1458 1456 1455 1454 1452 1451 1450 1450 1450 1450 1450 1450 1450 1450 1450 1451 1452 1452 1453 1453 1454 1454 1455 1455 1456 1456 1456 1456
1476 1471 1469 1467 1467 1467 1466 1466 1465 1464 1464 1463 1461 1460 1459 1457 1456 1455 1453 1453 1451 1450 1449 1449 1449 1449 1449 1449 1449 1449 1450 1451 1451 1452 1452 1452 1453 1453 1454 1454 1455 1455 1455 1456
1469 1465 1466 1464 1463 1463 1463 1462 1462 1461 1461 1460 1459 1458 1457 1455 1454 1453 1452 1451 1450 1449 1448 1448 1448 1448 1448 1449 1449 1449 1449 1450 1450 1450 1451 1451 1451 1452 1452 1453 1453 1454 1454 1454
1461 1461 1461 1461 1461 1460 1460 1459 1459 1458 1458 1457 1457 1456 1455 1453 1452 1451 1450 1450 1449 1448 1447 1447 1447 1447 1447 1448 1448 1448 1448 1448 1449 1449 1449 1450 1450 1450 1450 1451 1452 1452 1452 1453
1458 1459 1458 1458 1458 1458 1457 1456 1456 1456 1455 1455 1454 1454 1453 1452 1451 1450 1449 1448 1447 1446 1446 1446 1446 1446 1447 1447 1447 1447 1447 1447 1448 1448 1448 1449 1449 1449 1449 1449 1449 1450 1451 1451
1454 1455 1455 1454 1454 1454 1454 1454 1453 1453 1453 1452 1452 1451 1451 1450 1448 1448 1447 1446 1445 1445 1445 1445 1444 1445 1445 1445 1445 1446 1446 1446 1447 1447 1447 1447 1448 1448 1448 1448 1448 1448 1449 1450
1450 1451 1451 1451 1451 1451 1451 1451 1450 1450 1450 1450 1449 1449 1448 1448 1447 1446 1445 1444 1444 1443 1443 1443 1443 1444 1444 1444 1444 1444 1445 1445 1445 1446 1446 1446 1446 1446 1446 1446 1447 1447 1447 1448
1446 1446 1447 1447 1447 1447 1448 1448 1448 1447 1447 1447 1447 1447 1446 1445 1444 1444 1443 1443 1442 1442 1442 1442 1442 1442 1442 1443 1443 1443 1443 1443 1444 1444 1444 1444 1444 1445 1445 1445 1445 1446 1446 1447
1442 1443 1444 1444 1444 1444 1445 1445 1445 1445 1445 1445 1445 1444 1444 1443 1442 1442 1441 1441 1440 1440 1440 1440 1440 1441 1441 1441 1441 1441 1441 1442 1442 1442 1442 1442 1443 1443 1443 1443 1444 1444 1444 1445
1439 1439 1440 1440 1441 1442 1442 1442 1442 1442 1442 1442 1442 1441 1441 1441 1440 1440 1439 1439 1438 1438 1438 1438 1439 1439 1439 1440 1440 1440 1440 1440 1440 1440 1440 1440 1441 1441 1441 1442 1442 1442 1442 1443
1435 1436 1437 1437 1438 1438 1439 1439 1439 1439 1439 1439 1439 1439 1439 1438 1438 1438 1437 1437 1437 1437 1437 1437 1437 1438 1438 1438 1438 1438 1438 1438 1438 1438 1438 1438 1439 1439 1439 1440 1440 1440 1441 1441
1433 1433 1434 1434 1435 1435 1436 1436 1436 1436 1436 1436 1436 1436 1436 1436 1436 1435 1435 1435 1435 1435 1436 1436 1436 1436 1436 1436 1436 1436 1436 1436 1436 1436 1436 1437 1437 1437 1437 1438 1438 1438 1439 1439
1431 1431 1431 1431 1432 1432 1433 1433 1433 1433 1433 1434 1434 1434 1434 1433 1434 1433 1433 1434 1434 1434 1434 1434 1435 1435 1435 1435 1435 1435 1435 1435 1435 1435 1435 1435 1435 1435 1436 1436 1436 1437 1437 1437
1429 1429 1429 1429 1430 1430 1430 1430 1431 1431 1431 1431 1431 1431 1431 1432 1432 1432 1431 1432 1432 1433 1433 1433 1434 1434 1434 1434 1434 1434 1433 1433 1433 1434 1434 1434 1434 1434 1434 1434 1435 1435 1435 1436
1427 1427 1427 1427 1427 1427 1427 1428 1428 1428 1429 1429 1429 1430 1430 1430 1430 1431 1431 1431 1431 1432 1432 1432 1433 1433 1433 1433 1433 1433 1433 1433 1433 1432 1432 1432 1433 1433 1433 1433 1433 1434 1434 1434
1425 1425 1425 1425 1425 1425 1425 1425 1426 1426 1427 1427 1428 1428 1429 1429 1429 1430 1430 1430 1430 1431 1431 1431 1432 1432 1432 1432 1432 1432 1432 1432 1432 1432 1431 1431 1431 1431 1432 1432 1432 1432 1432 1433
1422 1422 1422 1422 1422 1422 1423 1423 1423 1424 1425 1425 1426 1427 1427 1428 1428 1429 1429 1430 1430 1430 1430 1431 1431 1431 1431 1431 1432 1432 1431 1431 1431 1431 1431 1431 1431 1431 1431 1431 1431 1431 1432 1432
1420 1420 1420 1420 1420 1420 1420 1421 1421 1422 1423 1424 1425 1426 1426 1427 1428 1428 1429 1429 1430 1430 1430 1431 1431 1431 1431 1431 1431 1431 1431 1431 1431 1430 1430 1430 1430 1430 1430 1430 1430 1431 1431 1431